Location: 5810 Zion Rd, Cleves, OH 45002, USA
(39.1922°N, 84.7113°W)
Time: 14:12:44
(UTC-05:00)

Vanguard 3 - Pass Details

Date: 22 December 2019
Orbit: 508 x 3263 km, 33.3° (Epoch: 19 January)

Event Time Altitude Azimuth Distance (km) Brightness Sun altitude
Rises 03:40:05 0° 204° (SSW) 2,605 - -48.4°
Reaches altitude 10° 03:44:16 10° 156° (SSE) 1,742 - -47.6°
Maximum altitude 03:44:43 10° 149° (SSE) 1,746 - -47.5°
Drops below altitude 10° 03:45:11 10° 142° (SE) 1,775 - -47.4°
Exits shadow 03:49:09 - 101° (E) 2,733 10.5 -46.7°
Sets 03:49:53 0° 97° (E) 2,990 10.8 -46.5°
